This demonstration page uses our WeatherBlox Daily Observations layout. Learn more.

Left ArrowRight Arrow

Hourly Observations for July 12, 2016

Temp ( °F °C ) Dew Point ( °F °C ) Humidity (%) Winds ( mph kmh ) Pressure ( in mb ) Visibility ( mi km ) Precip ( " mm )
12:59 am 00:59 Mostly Cloudy 78 25.6 69 20.6 74 74 ESE 6 9 30.09 1019 10 16 0.00 0.00
1:59 am 01:59 Mostly Cloudy 77 25 70 21.1 79 79 SE 5 7 30.08 1019 10 16 0.00 0.00
2:59 am 02:59 Mostly Cloudy 76 24.4 69 20.6 79 79 SE 5 7 30.07 1018 10 16 0.00 0.00
3:59 am 03:59 Mostly Cloudy 76 24.4 71 21.7 85 85 SE 3 6 30.07 1018 10 16 0.00 0.00
4:59 am 04:59 Mostly Cloudy 76 24.4 70 21.1 82 82 ESE 3 6 30.07 1018 10 16 0.00 0.00
5:31 am 05:31 Cloudy 76 24.4 70 21.1 82 82 ESE 6 9 30.09 1019 10 16 0.00 0.00
5:45 am 05:45 Cloudy 76 24.4 69 20.6 79 79 ESE 5 7 30.09 1019 10 16 0.00 0.00
5:59 am 05:59 Cloudy 76 24.4 69 20.6 79 79 ESE 6 9 30.08 1019 10 16 0.00 0.00
6:59 am 06:59 Mostly Cloudy 77 25 69 20.6 77 77 ESE 6 9 30.09 1019 10 16 0.00 0.00
7:23 am 07:23 Mostly Cloudy 78 25.6 70 21.1 76 76 E 6 9 30.09 1019 10 16 0.00 0.00
7:59 am 07:59 Mostly Cloudy 80 26.7 70 21.1 71 71 ESE 8 13 30.11 1020 10 16 0.00 0.00
8:59 am 08:59 Mostly Cloudy 80 26.7 69 20.6 69 69 ESE 10 17 30.13 1020 10 16 0.00 0.00
9:59 am 09:59 Mostly Cloudy 83 28.3 69 20.6 63 63 E 7 11 30.13 1020 10 16 0.00 0.00
10:59 am 10:59 Mostly Cloudy 84 28.9 70 21.1 63 63 E 10 17 30.13 1020 10 16 0.00 0.00
11:59 am 11:59 Mostly Cloudy 85 29.4 69 20.6 59 59 ESE 10 17 30.13 1020 10 16 0.00 0.00
12:59 pm 12:59 Mostly Cloudy 86 30 69 20.6 57 57 E 12 19 30.12 1020 10 16 0.00 0.00
1:59 pm 13:59 Mostly Cloudy 86 30 68 20 55 55 E 14 22 30.11 1020 10 16 0.00 0.00
2:59 pm 14:59 Mostly Cloudy 87 30.6 69 20.6 55 55 ESE 12 19 30.09 1019 10 16 0.00 0.00
3:59 pm 15:59 Mostly Cloudy 85 29.4 69 20.6 59 59 S 9 15 30.08 1019 10 16 0.00 0.00
4:59 pm 16:59 Mostly Cloudy 86 30 69 20.6 57 57 ESE 12 19 30.07 1018 10 16 0.00 0.00
5:59 pm 17:59 Mostly Cloudy 84 28.9 70 21.1 63 63 SE 10 17 30.07 1018 10 16 0.00 0.00
6:59 pm 18:59 Partly Cloudy 83 28.3 70 21.1 65 65 ESE 9 15 30.06 1018 10 16 0.00 0.00
7:59 pm 19:59 Mostly Sunny 81 27.2 70 21.1 69 69 SE 9 15 30.06 1018 10 16 0.00 0.00
8:59 pm 20:59 Mostly Clear 80 26.7 71 21.7 74 74 SE 9 15 30.06 1018 10 16 0.00 0.00
9:59 pm 21:59 Partly Cloudy 79 26.1 72 22.2 79 79 SE 7 11 30.08 1019 10 16 0.00 0.00
10:59 pm 22:59 Mostly Clear 79 26.1 73 22.8 82 82 SE 7 11 30.07 1018 10 16 0.00 0.00
11:59 pm 23:59 Partly Cloudy 79 26.1 73 22.8 82 82 SE 7 11 30.08 1019 10 16 0.00 0.00

Powered by AerisWeather